カタログに戻る

STARLINK-30227

運用中通信VLEO
NORAD 57505·PAYLOAD·🇺🇸 United States

打ち上げ Aug 7, 2023 から Cape Canaveral Space Force Station

Loading…

次のパス (今後24時間)

TLE

最新Source: CelesTrak SupGP

元期: Sep 15, 2026, 02:52 UTC

1 57505C 23113L   26258.11993056  .00035300  00000+0  10927-2 0  2588
2 57505  42.9956  15.8846 0018186 323.1905  74.8745 15.32459632    14

AllMySatでSTARLINK-30227をリアルタイム追跡

Download on the App Store